Flag for Canada Weather past 2 weeks in Kings County, Nova Scotia, Canada

Now
18 °F

Cold.


Feels Like: 3 °F
Forecast: 12 / 34 °F
Wind: 17 mph from Northeast

Location: McNabs Island - AUT

Current Time: Jan 27, 2015 at 8:53:57 AM

Latest Report: Jan 27, 2015 at 8:00 AM


Visibility: N/A

Pressure: 29.78 "Hg

Humidity: 100%

Dew point: 18 °F

Location of Kings CountyLocation

Historic Weather in Kings County — Graph

°F

Kings County temperature yesterday

Maximum temperature yesterday: 23 °F (at 3:00 PM)
Minimum temperature yesterday: 14 °F (at 7:00 AM)
Average temperature yesterday: 18 °F

Past Weeks' High & Low Weather Summary

 TemperatureHumidityPressure
High48 °F (Jan 25, 2:00 AM)100% (Jan 12, 11:00 PM)30.60 "Hg (Jan 12, 11:00 PM)
Low6 °F (Jan 14, 1:00 AM)38% (Jan 26, 4:00 PM)28.56 "Hg (Jan 25, 3:00 AM)
Average27 °F81%29.94 "Hg
* Reported Jan 12 7:00 AM — Jan 27 7:00 AM, Kings County, Weather by CustomWeather, © 2014

Note: Actual official high and low records may vary slightly from our data, if they occured in-between our weather recording intervals... More about our weather records

Advertising

Kings County weather history for previous 24 hours

 ConditionsComfort  
Time TempWeatherWind HumidityBarometerVisibility
7:00 AM
Jan 27
16 °FCold.17 mph93%29.85 "HgN/A
6:00 AM16 °FCold.17 mph85%29.93 "HgN/A
5:00 AM17 °FCold.17 mph60%30.01 "HgN/A
4:00 AM18 °FCold.17 mph61%30.09 "HgN/A
3:00 AM17 °FCold.13 mph66%30.16 "HgN/A
2:00 AM18 °FCold.13 mph55%30.20 "HgN/A
1:00 AM17 °FCold.12 mph55%30.22 "HgN/A
12:00 AM17 °FCold.10 mph65%30.26 "HgN/A
11:00 PM
Jan 26
17 °FCold.12 mph62%30.27 "HgN/A
10:00 PM17 °FCold.9 mph58%30.30 "HgN/A
9:00 PM18 °FCold.8 mph48%30.28 "HgN/A
8:00 PM18 °FCold.8 mph47%30.28 "HgN/A
7:00 PM18 °FCold.6 mph49%30.27 "HgN/A
6:00 PM19 °FCold.6 mph46%30.24 "HgN/A
5:00 PM20 °FCold.3 mph41%30.21 "HgN/A
4:00 PM22 °FCold.5 mph38%30.19 "HgN/A
3:00 PM23 °FCold.5 mph39%30.17 "HgN/A
2:00 PM21 °FCold.6 mph42%30.18 "HgN/A
1:00 PM22 °FCold.5 mph40%30.18 "HgN/A
12:00 PM20 °FCold.6 mph49%30.18 "HgN/A
11:00 AM18 °FCold.5 mph53%30.17 "HgN/A
10:00 AM17 °FCold.7 mph62%30.14 "HgN/A
9:00 AM17 °FCold.8 mph68%30.10 "HgN/A
8:00 AM14 °FCold.7 mph77%30.06 "HgN/A
Weather by CustomWeather, © 2014

See weather overviewHow to use our weather pages